Regional Weather Roundup
Issued by NWS Goodland, KS

Home | Current Version | Previous Version | Graphics & Text | Print | Product List | Glossary On
Versions: 1 2 3 4 5 6 7 8 9 10 11 12 13 14 15 16 17 18 19 20 21 22 23 24 25 26 27 28 29 30 31 32 33 34 35 36 37 38 39 40 41 42 43 44 45 46 47 48 49 50
000
ASUS43 KGLD 311908
RWRGLD

GOODLAND FORECAST AREA HOURLY WEATHER ROUNDUP
NATIONAL WEATHER SERVICE GOODLAND KS
100 PM MDT THU JUL 31 2014

...OFFICIAL OBSERVATIONS...

CITY           SKY/WX    TMP DP  RH WIND       PRES   REMARKS
GOODLAND KS    MOSUNNY   80  50  34 NW8       30.21F
HILL CITY KS   PTSUNNY   85  50  29 CALM      30.12F
IMPERIAL NEB   SUNNY     82  52  35 NW7       30.17F
MCCOOK NEB     SUNNY     86  50  28 SW10      30.13F
AKRON CO       MOSUNNY   76  48  37 CALM      30.25F
BURLINGTON CO  MOSUNNY   79  48  33 SW9       30.24F
LIMON CO       PTSUNNY   69  51  52 SW7       30.31F
$$

...UNOFFICIAL OBSERVATIONS...

CITY           SKY/WX    TMP DP  RH WIND       PRES   REMARKS
COLBY KS       MOSUNNY   81  54  39 W9        30.18F
GOVE KS          N/A     81  32  17 MISG        N/A
LENORA KS        N/A     83  32  16 MISG        N/A
NORTON KS      PTSUNNY   88  43  20 CALM      30.11F
SHARON SPRINGS   N/A     78  52  39 CALM        N/A
ST FRANCIS KS  SUNNY     81  45  28 W8        30.19F
TRIBUNE KS     MOSUNNY   75 N/A N/A S3        30.24F
WAKEENEY KS      N/A     84  45  25 MISG        N/A
TRENTON NEB      N/A     85  32  15 W8          N/A
KIT CARSON CO    N/A     73  51  46 CALM        N/A
WRAY CO          N/A     84  46  26 S3        30.20F
YUMA CO          N/A     78  49  36 S5G12       N/A
$$



USA.gov is the U.S. government's official web portal to all federal, state and local government web resources and services.